User: anonymous   Login
Location: Bowman Observatory
(41.0326°N, 73.6210°W)
Time: 15:56:38
(UTC-05:00)
Language:

Cosmos 2298 Rocket - Orbit

View from above orbital plane
View from above orbital plane
View from above satellite
View from above satellite

Ground track
Ground track

The orbit data is extracted from the following two-line orbital elements,

1 23432U 94083B   14327.17823595  .00000084  00000-0  40026-4 0  9971
2 23432 074.0324 211.2875 0006529 284.4464 192.0557 14.33315201 42048
Epoch (UTC): 23 November 2014 04:16:39
Eccentricity: 0.0006529
inclination: 74.0324°
perigee height: 776 km
apogee height: 785 km
right ascension of ascending node: 211.2875°
argument of perigee: 284.4464°
revolutions per day: 14.33315201
mean anomaly at epoch: 192.0557°
orbit number at epoch: 4204

The dashed part of the orbit path shows where the satellite is in the earth's shadow,  

DLR